Weather History for KNDZ - August, 2013

Change the Weather History Date:

Tuesday, August 20, 2013

  Actual Average (KNSE) Record (KNSE)
Temperature  
Mean Temperature 80 °F -  
Max Temperature 88 °F 87 °F 99 °F (2011)
Min Temperature 73 °F 70 °F 68 °F (1999)
Cooling Degree Days 14    
Growing Degree Days 30 (Base 50)    
Moisture  
Dew Point 72 °F    
Average Humidity 89    
Maximum Humidity 100    
Minimum Humidity 65    
Precipitation  
Precipitation 0.66 in - - ()
Sea Level Pressure  
Sea Level Pressure 30.05 in    
Wind  
Wind Speed 5 mph (ESE)    
Max Wind Speed 17 mph    
Max Gust Speed 37 mph    
Visibility 7 miles    
Events Fog , Rain , Thunderstorm    
Averages and records for this station are not official NWS values.
T = Trace of Precipitation, MM = Missing Value Source: NWS Daily Summary

Daily Weather History Graph

Daily Weather History Graph

Search for Another Location

Airport or City:

Trip Planner

Search our weather history database for the weather conditions in past years. The results will help you decide how hot, cold, wet, or windy it might be!

Date:

Astronomy

Aug. 20, 2013 Rise Set
Actual Time 6:17 AM CDT 7:24 PM CDT
Civil Twilight 5:52 AM CDT 7:49 PM CDT
Nautical Twilight 5:22 AM CDT 8:19 PM CDT
Astronomical Twilight 4:52 AM CDT 8:49 PM CDT
Moon 7:00 PM CDT (8/20) 5:45 AM CDT (8/20)
Length of Visible Light 13h 57m
Length of Day
13h 06m
Full, 100% of the Moon is Illuminated
Aug 20
Full
Aug 20
Full
Aug 28
Last Quarter
Sep 5
New
Sep 12
First Quarter

Hourly Weather History & Observations

Time (CDT) Temp. Heat Index Dew Point Humidity Pressure Visibility Wind Dir Wind Speed Gust Speed Precip Events Conditions
12:56 AM 77.0 °F - 73.9 °F 90% 29.98 in 10.0 mi East 5.8 mph - N/A   Scattered Clouds
1:56 AM 75.9 °F - 73.0 °F 91% 29.99 in 10.0 mi ENE 5.8 mph - N/A   Clear
2:56 AM 75.0 °F - 72.0 °F 90% 29.98 in 10.0 mi Calm Calm - N/A   Clear
3:56 AM 75.0 °F - 71.1 °F 87% 29.97 in 10.0 mi Calm Calm - N/A   Clear
4:56 AM 73.9 °F - 71.1 °F 91% 29.96 in 10.0 mi Calm Calm - N/A   Clear
5:56 AM 73.0 °F - 71.1 °F 93% 29.97 in 10.0 mi Calm Calm - N/A   Scattered Clouds
6:56 AM 73.9 °F - 71.1 °F 91% 29.99 in 10.0 mi North 4.6 mph - N/A   Mostly Cloudy
7:32 AM 73.4 °F - 71.6 °F 94% 30.05 in 10.0 mi East 3.5 mph - N/A   Mostly Cloudy
7:56 AM 75.9 °F - 73.0 °F 91% 30.01 in 8.0 mi ENE 3.5 mph - N/A   Mostly Cloudy
8:56 AM 78.1 °F - 73.9 °F 87% 30.04 in 10.0 mi East 3.5 mph - N/A   Mostly Cloudy
9:56 AM 84.0 °F 91.2 °F 73.9 °F 72% 30.04 in 10.0 mi Variable 4.6 mph - N/A   Mostly Cloudy
10:56 AM 86.0 °F 93.0 °F 73.0 °F 65% 30.05 in 10.0 mi ESE 4.6 mph - N/A Thunderstorm Thunderstorm
11:24 AM 78.8 °F - 69.8 °F 74% 30.10 in 10.0 mi SSE 13.8 mph 36.8 mph 0.01 in Thunderstorm Thunderstorm
11:36 AM 75.2 °F - 71.6 °F 89% 30.10 in 0.5 mi SSE 17.3 mph 25.3 mph 0.01 in Fog , Rain , Thunderstorm Light Thunderstorms and Rain
11:56 AM 73.9 °F - 72.0 °F 93% 30.06 in 0.2 mi Variable 3.5 mph - 0.19 in Fog , Rain , Thunderstorm Heavy Thunderstorms and Rain
11:59 AM 73.4 °F - 71.6 °F 94% 30.11 in 2.5 mi ESE 5.8 mph - 0.04 in Rain , Thunderstorm Heavy Thunderstorms and Rain
12:11 PM 73.4 °F - 71.6 °F 94% 30.09 in 3.0 mi Calm Calm - 0.12 in Rain , Thunderstorm Light Thunderstorms and Rain
12:18 PM 73.4 °F - 71.6 °F 94% 30.09 in 3.0 mi Calm Calm - 0.12 in Rain , Thunderstorm Light Rain
12:27 PM 73.4 °F - 71.6 °F 94% 30.09 in 10.0 mi WNW 3.5 mph - 0.13 in Rain Light Rain
12:56 PM 75.0 °F - 72.0 °F 90% 30.04 in 10.0 mi Calm Calm - 0.13 in   Mostly Cloudy
1:56 PM 78.1 °F - 73.0 °F 84% 30.02 in 10.0 mi Calm Calm - N/A   Mostly Cloudy
2:56 PM 82.9 °F 89.4 °F 73.9 °F 74% 30.02 in 10.0 mi Calm Calm - N/A   Mostly Cloudy
3:56 PM 84.9 °F 92.1 °F 73.9 °F 69% 30.01 in 10.0 mi Calm Calm - N/A   Mostly Cloudy
4:44 PM 82.4 °F 88.2 °F 73.4 °F 74% 30.06 in 10.0 mi ESE 9.2 mph - N/A Thunderstorm Overcast
4:56 PM 80.1 °F 84.5 °F 73.9 °F 81% 30.04 in 10.0 mi ESE 9.2 mph - 0.00 in Rain , Thunderstorm Light Thunderstorms and Rain
5:13 PM 75.2 °F - 73.4 °F 94% 30.09 in 10.0 mi SSE 13.8 mph 18.4 mph 0.00 in Rain , Thunderstorm Light Thunderstorms and Rain
5:19 PM 75.2 °F - 71.6 °F 89% 30.09 in 2.5 mi SSE 15.0 mph 20.7 mph 0.06 in Rain , Thunderstorm Heavy Thunderstorms and Rain
5:27 PM 75.2 °F - 71.6 °F 89% 30.08 in 2.5 mi SSE 12.7 mph - 0.14 in Rain , Thunderstorm Heavy Thunderstorms and Rain
5:36 PM 75.2 °F - 71.6 °F 89% 30.08 in 2.5 mi SSE 10.4 mph - 0.20 in Rain , Thunderstorm Heavy Thunderstorms and Rain
5:43 PM 73.4 °F - 71.6 °F 94% 30.08 in 3.0 mi South 6.9 mph - 0.23 in Rain , Thunderstorm Thunderstorms and Rain
5:56 PM 73.9 °F - 72.0 °F 93% 30.03 in 6.0 mi Calm Calm - 0.27 in Rain , Thunderstorm Thunderstorms and Rain
6:16 PM 73.4 °F - 71.6 °F 94% 30.05 in 10.0 mi ESE 3.5 mph - 0.01 in Rain , Thunderstorm Light Thunderstorms and Rain
6:29 PM 73.4 °F - 71.6 °F 94% 30.05 in 10.0 mi ESE 4.6 mph - 0.03 in Rain Light Rain
6:56 PM 73.9 °F - 72.0 °F 93% 30.00 in 10.0 mi South 3.5 mph - 0.05 in Rain Light Rain
7:56 PM 73.9 °F - 72.0 °F 93% 30.01 in 10.0 mi Calm Calm - 0.02 in   Mostly Cloudy
8:56 PM 73.9 °F - 72.0 °F 93% 30.03 in 10.0 mi Calm Calm - N/A   Mostly Cloudy
9:56 PM 73.9 °F - 72.0 °F 93% 30.06 in 10.0 mi East 4.6 mph - N/A   Mostly Cloudy
10:07 PM 73.4 °F - 71.6 °F 94% 30.11 in 1.0 mi ENE 6.9 mph - N/A   Overcast
10:20 PM 73.4 °F - 71.6 °F 94% 30.11 in 3.0 mi East 8.1 mph - N/A   Overcast
10:47 PM 73.4 °F - 73.4 °F 100% 30.11 in 6.0 mi NE 3.5 mph - N/A   Scattered Clouds
10:56 PM 73.9 °F - 72.0 °F 93% 30.07 in 6.0 mi ESE 5.8 mph - N/A   Mostly Cloudy
11:34 PM 73.4 °F - 71.6 °F 94% 30.11 in 1.0 mi ENE 6.9 mph - N/A   Overcast
11:56 PM 73.9 °F - 73.0 °F 97% 30.06 in 0.8 mi East 4.6 mph - N/A   Overcast